Mobile, AL

3:57 AM CDT on September 22, 2017 (GMT -0500)
Mobile Regional

Weather History for KMOB - April, 2013

Change the Weather History Date:

Monday, April 22, 2013

  Actual Average Record
Temperature  
Mean Temperature 65 °F 68 °F  
Max Temperature 79 °F 79 °F 92 °F (1987)
Min Temperature 50 °F 57 °F 42 °F (1993)
Degree Days  
Heating Degree Days 0 1  
Month to date heating degree days 60 54  
Since 1 July heating degree days 1546 1685  
Cooling Degree Days 0 4  
Month to date cooling degree days 59 64  
Year to date cooling degree days 103 119  
Growing Degree Days 14 (Base 50)    
Moisture  
Dew Point 54 °F    
Average Humidity 67    
Maximum Humidity 89    
Minimum Humidity 45    
Precipitation  
Precipitation 0.00 in 0.15 in 4.32 in (1983)
Month to date precipitation 4.88 3.59  
Year to date precipitation 19.86 20.50  
Sea Level Pressure  
Sea Level Pressure 30.10 in    
Wind  
Wind Speed 7 mph (East)    
Max Wind Speed 14 mph    
Max Gust Speed 17 mph    
Visibility 9 miles    
Events      
T = Trace of Precipitation, MM = Missing Value Source: NWS Daily Summary

Daily Weather History Graph

Daily Weather History Graph

Search for Another Location

Airport or City:

Trip Planner

Search our weather history database for the weather conditions in past years. The results will help you decide how hot, cold, wet, or windy it might be!

Date:

Astronomy

Apr. 22, 2013 Rise Set
Actual Time 6:17 AM CDT 7:25 PM CDT
Civil Twilight 5:52 AM CDT 7:50 PM CDT
Nautical Twilight 5:22 AM CDT 8:20 PM CDT
Astronomical Twilight 4:52 AM CDT 8:51 PM CDT
Moon 4:25 PM CDT 3:58 AM CDT
Length of Visible Light 13h 58m
Length of Day
13h 08m
Waxing Gibbous, 88% of the Moon is Illuminated
Apr 22
Waxing Gibbous
Apr 25
Full
May 2
Last Quarter
May 9
New
May 17
First Quarter

Hourly Weather History & Observations

Time (CDT) Temp. Dew Point Humidity Pressure Visibility Wind Dir Wind Speed Gust Speed Precip Events Conditions
12:56 AM 52.0 °F 48.0 °F 86% 30.14 in 10.0 mi Calm Calm - N/A   Clear
1:56 AM 52.0 °F 46.9 °F 83% 30.12 in 10.0 mi Calm Calm - N/A   Clear
2:56 AM 53.1 °F 46.0 °F 77% 30.09 in 10.0 mi East 5.8 mph - N/A   Clear
3:56 AM 53.1 °F 45.0 °F 74% 30.08 in 10.0 mi ENE 5.8 mph - N/A   Clear
4:56 AM 53.1 °F 45.0 °F 74% 30.09 in 10.0 mi NNE 4.6 mph - N/A   Clear
5:56 AM 53.1 °F 45.0 °F 74% 30.10 in 7.0 mi NNE 6.9 mph - N/A   Scattered Clouds
6:56 AM 54.0 °F 46.0 °F 75% 30.12 in 7.0 mi NE 6.9 mph - N/A   Mostly Cloudy
7:56 AM 57.9 °F 48.9 °F 72% 30.14 in 7.0 mi ENE 6.9 mph - N/A   Mostly Cloudy
8:56 AM 63.0 °F 52.0 °F 67% 30.15 in 7.0 mi East 6.9 mph - N/A   Mostly Cloudy
9:56 AM 68.0 °F 55.0 °F 63% 30.15 in 7.0 mi East 12.7 mph - N/A   Scattered Clouds
10:56 AM 72.0 °F 57.0 °F 59% 30.15 in 7.0 mi ESE 6.9 mph - N/A   Partly Cloudy
11:56 AM 75.0 °F 57.0 °F 53% 30.14 in 10.0 mi Variable 4.6 mph - N/A   Partly Cloudy
12:56 PM 73.9 °F 57.0 °F 55% 30.12 in 10.0 mi ENE 4.6 mph - N/A   Mostly Cloudy
1:56 PM 78.1 °F 55.0 °F 45% 30.10 in 10.0 mi Calm Calm - N/A   Mostly Cloudy
2:56 PM 75.9 °F 54.0 °F 46% 30.08 in 10.0 mi East 4.6 mph - N/A   Mostly Cloudy
3:56 PM 78.1 °F 57.9 °F 50% 30.06 in 10.0 mi East 12.7 mph - N/A   Scattered Clouds
4:56 PM 73.9 °F 57.9 °F 57% 30.06 in 10.0 mi ESE 10.4 mph - N/A   Mostly Cloudy
5:56 PM 75.0 °F 57.9 °F 55% 30.05 in 10.0 mi ESE 10.4 mph - N/A   Scattered Clouds
6:56 PM 71.1 °F 60.1 °F 68% 30.06 in 10.0 mi SSE 8.1 mph - N/A   Scattered Clouds
7:56 PM 66.9 °F 60.1 °F 79% 30.07 in 10.0 mi SSE 8.1 mph - N/A   Scattered Clouds
8:56 PM 66.0 °F 61.0 °F 84% 30.09 in 10.0 mi SSE 6.9 mph - N/A   Mostly Cloudy
9:56 PM 64.0 °F 60.1 °F 87% 30.10 in 10.0 mi SE 6.9 mph - N/A   Mostly Cloudy
10:56 PM 64.0 °F 59.0 °F 84% 30.11 in 10.0 mi ESE 5.8 mph - N/A   Partly Cloudy
11:56 PM 63.0 °F 57.9 °F 84% 30.10 in 10.0 mi ESE 6.9 mph - N/A   Partly Cloudy